Location: Unspecified
(40.7945°N, 0.0000°E)
Time: 06:42:25
(UTC+00:00)

Altair - Pass Details

Date: 26 January 2021
Orbit: 1501 x 1682 km, 47.2° (Epoch: 28 February)

Event Time Altitude Azimuth Distance (km) Brightness Sun altitude
Rises 04:06:30 0° 226° (SW) 4,817 - -35.7°
Reaches altitude 10° 04:09:35 10° 224° (SW) 3,855 - -35.1°
Exits shadow 04:16:40 51° 203° (SSW) 2,004 7.8 -33.8°
Maximum altitude 04:19:24 68° 144° (SE) 1,766 7.7 -33.3°
Drops below altitude 10° 04:29:27 10° 64° (ENE) 3,949 10.4 -31.4°
Sets 04:32:39 0° 62° (ENE) 4,939 11.1 -30.8°
